Regional Weather Roundup
Issued by NWS

Home | Current Version | Previous Version | Graphics & Text | Print | Product List | Glossary On
Versions: 1 2 3 4 5 6 7 8 9 10 11 12 13 14 15 16 17 18 19 20 21 22 23 24 25 26 27 28 29 30 31 32 33 34 35 36 37 38 39 40 41 42 43 44 45 46 47 48 49 50
000
ASUS43 KOAX 141202
RWRNE

WEATHER ROUNDUP FOR NEBRASKA
NATIONAL WEATHER SERVICE OMAHA NE
600 AM CST THU DEC 14 2017

NOTES: SATELLITE DATA IS BEING USED TO AUGMENT CLOUD COVER ABOVE
       12000 FEET.
       "FAIR" INDICATES FEW OR NO CLOUDS BELOW 12,000 FEET WITH NO
       SIGNIFICANT WEATHER AND/OR OBSTRUCTIONS TO VISIBILITY.


NEZ001>004-019>022-054>056-141300-
NEBRASKA PANHANDLE

CITY           SKY/WX    TMP DP  RH WIND       PRES   REMARKS
SCOTTSBLUFF    CLOUDY    35  24  64 W10       30.13F WCI  27
6HR MIN TEMP:  33; 6HR MAX TEMP:  36;

ALLIANCE       CLOUDY    33  24  69 NW13      30.09S WCI  24
6HR MIN TEMP:  25; 6HR MAX TEMP:  35;

CHADRON        CLOUDY    37  24  59 W18G28    30.10F WCI  27
6HR MIN TEMP:  33; 6HR MAX TEMP:  38;

GORDON         CLOUDY    33  28  82 W9        30.05S WCI  26
6HR MIN TEMP:  32; 6HR MAX TEMP:  37;

KIMBALL        MOCLDY    29  24  82 NW8       30.14S WCI  21
SIDNEY         PTCLDY    32  21  64 NW15      30.12R WCI  22
6HR MIN TEMP:  32; 6HR MAX TEMP:  37;

$$

NEZ057>060-069>072-079>082-141300-
SOUTHWEST NEBRASKA

CITY           SKY/WX    TMP DP  RH WIND       PRES   REMARKS
NORTH PLATTE   CLOUDY    38  27  64 W10       30.08S WCI  31
6HR MIN TEMP:  32; 6HR MAX TEMP:  38;

IMPERIAL       CLOUDY    36  29  75 W14       30.12S WCI  27
6HR MIN TEMP:  36; 6HR MAX TEMP:  38;

LEXINGTON      CLOUDY    33  24  70 NW7       30.06F WCI  27
MCCOOK         CLOUDY    37  23  56 W12       30.11S WCI  29
6HR MIN TEMP:  36; 6HR MAX TEMP:  39;

OGALLALA       MOCLDY    37  27  65 NW16      30.10S WCI  28
$$

NEZ005>010-023>029-035>040-094-141300-
NORTH CENTRAL NEBRASKA

CITY           SKY/WX    TMP DP  RH WIND       PRES   REMARKS
VALENTINE      CLOUDY    35  32  88 W9        30.03S WCI  28
6HR MIN TEMP:  33; 6HR MAX TEMP:  37;

AINSWORTH      CLOUDY    35  32  90 NW12      30.02S WCI  27
BROKEN BOW     CLOUDY    36  25  64 NW14      30.04S WCI  27
6HR MIN TEMP:  28; 6HR MAX TEMP:  36;

O`NEILL        CLOUDY    28  25  91 W5        30.02R WCI  22
ORD            CLOUDY    29  25  85 NW7       30.03S WCI  22
6HR MIN TEMP:  29; 6HR MAX TEMP:  33;

THEDFORD       CLOUDY    35  33  92 NW8       30.05F WCI  28
$$

NEZ041-046>049-061>064-073>077-083>087-141300-
SOUTH CENTRAL NEBRASKA

CITY           SKY/WX    TMP DP  RH WIND       PRES   REMARKS
GRAND ISLAND   CLOUDY    30  26  85 W8        30.05F WCI  22
6HR MIN TEMP:  30; 6HR MAX TEMP:  33;

AURORA         CLOUDY    30  26  83 W8        30.05S WCI  23
HASTINGS       PTCLDY    30  24  78 W7        30.05F WCI  23
6HR MIN TEMP:  30; 6HR MAX TEMP:  33;

HEBRON         CLOUDY    33  27  77 NW5       30.06S WCI  29
HOLDREGE       CLOUDY    32  26  80 W6        30.07R WCI  26
KEARNEY        PTCLDY    32  26  78 W7        30.06  WCI  26
YORK           CLOUDY    32  27  80 CALM      30.04S
$$

NEZ011>018-030>034-042>045-141300-
NORTHEAST NEBRASKA

CITY           SKY/WX    TMP DP  RH WIND       PRES   REMARKS
NORFOLK        CLOUDY    34  26  72 W8        30.01R WCI  27
6HR MIN TEMP:  33; 6HR MAX TEMP:  36;

ALBION         CLOUDY    30  25  80 NW5       30.03R WCI  25
BLAIR          CLOUDY    33  29  83 W6        30.02R WCI  28
COLUMBUS       CLOUDY    33  25  72 W5        30.04R WCI  29
FREMONT        CLOUDY    33  25  72 NW3       30.04R
TEKAMAH        CLOUDY    33  25  72 NW5       30.03S WCI  29
6HR MIN TEMP:  32; 6HR MAX TEMP:  37;

WAYNE          CLOUDY    33  24  68 W7        30.02R WCI  27
$$

NEZ050>053-065>068-078-088>093-141300-
SOUTHEAST NEBRASKA

CITY           SKY/WX    TMP DP  RH WIND       PRES   REMARKS
LINCOLN        CLOUDY    37  23  56 W5        30.06S WCI  33
6HR MIN TEMP:  37; 6HR MAX TEMP:  39;

OMAHA EPPLEY   CLOUDY    34  27  75 NW6       30.04R WCI  29
6HR MIN TEMP:  34; 6HR MAX TEMP:  38;

BEATRICE       CLOUDY    35  27  72 NW6       30.05S WCI  30
FALLS CITY     CLOUDY    35  25  66 NW3       30.04R
6HR MIN TEMP:  35; 6HR MAX TEMP:  39;

NEBRASKA CITY  CLOUDY    34  28  77 CALM      30.03F
PLATTSMOUTH    CLOUDY    34  29  81 W5        30.04R WCI  30
$$

NEZ044-045-051>053-067-141300-
OMAHA AREA

CITY           SKY/WX    TMP DP  RH WIND       PRES   REMARKS
OMAHA EPPLEY   CLOUDY    34  27  75 NW6       30.04R WCI  29
6HR MIN TEMP:  34; 6HR MAX TEMP:  38;

BLAIR          CLOUDY    33  29  83 W6        30.02R WCI  28
FREMONT        CLOUDY    33  25  72 NW3       30.04R
MILLARD        CLOUDY    36  29  76 NW6       30.04R WCI  31
OFFUTT AFB     CLOUDY    34  28  76 W3        30.03R
PLATTSMOUTH    CLOUDY    34  29  81 W5        30.04R WCI  30
WAHOO          CLOUDY    35  23  60 NW6       30.04R WCI  30
$$




USA.gov is the U.S. government's official web portal to all federal, state and local government web resources and services.